sat.trackr.live / text

‹ back to catalog

STARLINK-31685

NORAD 59578 · 2024-076Q

PAYLOAD ACTIVE UNKNOWN

§ Identity

Operator
Country
US
Launch date
2024-04-23
Launch site
AFETR
Launch vehicle
Mass (kg)
RCS (m²)

Purposes: comms

External: N2YO · Heavens-Above · Gunter

§ Orbital elements

Epoch: 2026-09-21T13:35:43.238688Z

Period
94.27 min
Inclination
43.0016°
Eccentricity
0.0001165
Mean motion
15.27576743 rev/d
Perigee alt
482.3 km
Apogee alt
483.9 km
Semi-major
6,861.2 km
B*
1.1870e-5
RAAN
342.4275°
Arg perigee
256.7802°
Mean anomaly
103.2920°
Rev number
13,646

§ Raw data

STARLINK-316851 59578U 24076Q   26264.56647267  .00000065  00000+0  11870-4 0  99972 59578  43.0016 342.4275 0001165 256.7802 103.2920 15.27576743136464

JSON: /api/v1/satellites/59578 · /tle

For live sub-satellite position, see the globe view (requires WebGL).

§ Visibility from observer

Set your observer location to see the next 7 days of passes ≥ 10°. The values pass through the URL so the page stays shareable.

No JS? Fill the form by hand. The geolocation button needs JavaScript.